sat.trackr.live / text

‹ back to catalog

STARLINK-1523

NORAD 46028 · 2020-055B

PAYLOAD ACTIVE UNKNOWN

§ Identity

Operator
Country
US
Launch date
2020-08-07
Launch site
AFETR
Launch vehicle
Mass (kg)
RCS (m²)

Purposes: comms

External: N2YO · Heavens-Above · Gunter

§ Orbital elements

Epoch: 2026-05-25T03:16:33.091104Z

Period
94.11 min
Inclination
53.1587°
Eccentricity
0.0001410
Mean motion
15.30186308 rev/d
Perigee alt
474.3 km
Apogee alt
476.2 km
Semi-major
6,853.4 km
B*
3.7325e-7
RAAN
131.6168°
Arg perigee
90.0256°
Mean anomaly
270.0906°
Rev number
32,060

§ Raw data

STARLINK-15231 46028U 20055B   26145.13649411 -.00000348  00000+0  37325-6 0  99902 46028  53.1587 131.6168 0001410  90.0256 270.0906 15.30186308320605

JSON: /api/v1/satellites/46028 · /tle

For live sub-satellite position, see the globe view (requires WebGL).

§ Visibility from observer

Set your observer location to see the next 7 days of passes ≥ 10°. The values pass through the URL so the page stays shareable.

No JS? Fill the form by hand. The geolocation button needs JavaScript.